Location: Dehesa de la Cepeda
(40.6574°N, 4.3013°W)
Time: 05:13:33
(UTC+00:00)

Altair - Visible Passes

Search period start: 31 July 2021 00:00
Search period end: 10 August 2021 00:00
Orbit: 1502 x 1682 km, 47.2° (Epoch: 30 July)

Date Brightness Start Highest point End Pass type
(mag) Time Alt. Az. Time Alt. Az. Time Alt. Az.
31 Jul 8.4 00:26:40 28° ESE 00:26:40 28° ESE 00:32:41 10° ENE visible
31 Jul 7.3 02:24:39 39° SW 02:28:52 84° SSE 02:38:07 10° ENE visible
31 Jul 7.9 04:24:55 10° W 04:34:06 60° N 04:43:10 10° ENE visible
01 Aug 8.6 00:02:32 24° ESE 00:02:32 24° ESE 00:07:21 10° ENE visible
01 Aug 7.3 02:00:31 47° SW 02:03:43 80° SSE 02:12:56 10° ENE visible
01 Aug 7.9 03:59:38 10° W 04:08:51 61° N 04:17:56 10° ENE visible
01 Aug 8.8 23:38:20 20° E 23:38:20 20° E 23:41:59 10° E visible
02 Aug 7.3 01:36:19 56° SSW 01:38:33 75° SSE 01:47:46 10° ENE visible
02 Aug 7.8 03:34:21 10° W 03:43:37 62° N 03:52:43 10° ENE visible
02 Aug 9.0 23:14:06 16° E 23:14:06 16° E 23:16:34 10° E visible
03 Aug 7.3 01:12:05 64° S 01:13:24 71° SE 01:22:36 10° ENE visible
03 Aug 7.8 03:10:04 14° W 03:18:23 63° NNW 03:27:31 10° ENE visible
03 Aug 9.1 22:49:50 13° E 22:49:50 13° E 22:51:05 10° E visible
04 Aug 7.3 00:47:49 66° SSE 00:48:16 66° SE 00:57:25 10° ENE visible
04 Aug 7.7 02:45:47 18° W 02:53:09 65° NNW 03:02:18 10° ENE visible
04 Aug 9.2 22:25:29 10° E 22:25:29 10° E 22:25:31 10° E visible
05 Aug 7.4 00:23:27 62° SE 00:23:27 62° SE 00:32:14 10° ENE visible
05 Aug 7.7 02:21:25 23° W 02:27:55 67° NNW 02:37:07 10° ENE visible
05 Aug 8.0 04:24:26 10° WNW 04:33:38 60° N 04:42:42 10° E visible
05 Aug 7.5 23:59:02 55° ESE 23:59:02 55° ESE 00:07:03 10° ENE visible
06 Aug 7.6 01:57:00 27° W 02:02:42 69° NNW 02:11:55 10° ENE visible
06 Aug 8.0 03:59:11 10° WNW 04:08:24 59° N 04:17:27 10° E visible
06 Aug 7.7 23:34:30 49° ESE 23:34:30 49° ESE 23:41:52 10° ENE visible
07 Aug 7.5 01:32:27 32° W 01:37:28 72° NNW 01:46:44 10° ENE visible
07 Aug 8.0 03:33:55 10° WNW 03:43:09 59° N 03:52:12 10° E visible
07 Aug 7.8 23:09:50 44° ESE 23:09:50 44° ESE 23:16:39 10° ENE visible
08 Aug 7.5 01:07:46 36° W 01:12:15 75° NNW 01:21:33 10° ENE visible
08 Aug 7.9 03:08:39 10° WNW 03:17:54 58° N 03:26:57 10° E visible
08 Aug9.520:47:00E20:47:00E20:30:56SSEvisible
08 Aug 7.9 22:44:55 40° ESE 22:44:55 40° ESE 22:51:26 10° ENE visible
09 Aug 7.5 00:42:49 39° WSW 00:47:02 78° NNW 00:56:22 10° ENE visible
09 Aug 7.9 02:43:22 10° WNW 02:52:39 58° N 03:01:42 10° E visible
09 Aug 7.6 04:48:48 10° WNW 04:58:08 83° NNE 05:07:20 10° ESE visible
09 Aug 7.9 22:19:28 39° ESE 22:19:28 39° ESE 22:26:13 10° ENE visible
